TimeEDT,TemperatureF,Dew PointF,Humidity,Sea Level PressureIn,VisibilityMPH,Wind Direction,Wind SpeedMPH,Gust SpeedMPH,PrecipitationIn,Events,Conditions,WindDirDegrees,DateUTC
12:15 AM,72.7,65.7,79,29.90,10.0,WNW,5.8,-,N/A,,Clear,300,2013-08-22 04:15:00
12:35 AM,71.8,65.8,81,29.90,10.0,WNW,5.8,-,N/A,,Clear,300,2013-08-22 04:35:00
12:55 AM,71.8,66.2,83,29.90,10.0,WNW,4.6,-,N/A,,Clear,290,2013-08-22 04:55:00
1:15 AM,71.6,66.7,85,29.91,10.0,WNW,6.9,-,N/A,,Clear,290,2013-08-22 05:15:00
1:35 AM,70.7,66.9,88,29.92,7.0,NW,4.6,-,N/A,,Clear,310,2013-08-22 05:35:00
1:54 AM,69.8,67.1,91,29.91,7.0,WNW,5.8,-,N/A,,Clear,300,2013-08-22 05:54:00
2:15 AM,69.3,66.7,92,29.92,7.0,NW,3.5,-,N/A,,Clear,310,2013-08-22 06:15:00
2:35 AM,68.9,66.2,91,29.91,7.0,NW,4.6,-,N/A,,Clear,320,2013-08-22 06:35:00
2:55 AM,68.9,65.8,90,29.92,10.0,NW,5.8,-,N/A,,Clear,310,2013-08-22 06:55:00
3:15 AM,68.5,66.2,92,29.93,10.0,WNW,5.8,-,N/A,,Clear,290,2013-08-22 07:15:00
3:35 AM,68.2,65.8,92,29.93,10.0,WNW,3.5,-,N/A,,Clear,300,2013-08-22 07:35:00
3:55 AM,67.6,65.3,92,29.93,10.0,WNW,4.6,-,N/A,,Clear,300,2013-08-22 07:55:00
4:15 AM,67.1,64.4,91,29.93,10.0,NW,3.5,-,N/A,,Clear,310,2013-08-22 08:15:00
4:35 AM,66.6,64.2,92,29.94,10.0,Calm,Calm,-,N/A,,Clear,0,2013-08-22 08:35:00
4:55 AM,65.7,63.5,93,29.95,10.0,Calm,Calm,-,N/A,,Clear,0,2013-08-22 08:55:00
5:15 AM,65.3,63.0,92,29.96,10.0,Calm,Calm,-,N/A,,Clear,0,2013-08-22 09:15:00
5:35 AM,63.7,62.1,94,29.95,10.0,Calm,Calm,-,N/A,,Clear,0,2013-08-22 09:35:00
5:55 AM,63.1,61.9,96,29.96,7.0,Calm,Calm,-,N/A,,Clear,0,2013-08-22 09:55:00
6:15 AM,63.9,62.6,96,29.96,10.0,Calm,Calm,-,N/A,,Clear,0,2013-08-22 10:15:00
6:35 AM,63.9,63.1,97,29.97,5.0,Calm,Calm,-,N/A,,Scattered Clouds,0,2013-08-22 10:35:00
6:55 AM,64.0,63.0,96,29.97,7.0,Calm,Calm,-,N/A,,Clear,0,2013-08-22 10:55:00
7:14 AM,64.4,63.0,95,29.98,7.0,WNW,3.5,-,N/A,,Clear,290,2013-08-22 11:14:00
7:35 AM,64.9,63.0,93,29.98,10.0,Calm,Calm,-,N/A,,Clear,0,2013-08-22 11:35:00
7:55 AM,65.5,63.3,93,30.00,10.0,Calm,Calm,-,N/A,,Clear,0,2013-08-22 11:55:00
8:15 AM,67.1,63.3,88,30.00,10.0,Calm,Calm,-,N/A,,Clear,0,2013-08-22 12:15:00
8:35 AM,67.6,62.6,84,30.00,10.0,NNW,3.5,-,N/A,,Clear,330,2013-08-22 12:35:00
8:54 AM,68.9,62.4,80,29.99,10.0,Calm,Calm,-,N/A,,Clear,0,2013-08-22 12:54:00
9:15 AM,70.0,61.0,73,30.00,10.0,North,3.5,-,N/A,,Clear,360,2013-08-22 13:15:00
9:35 AM,70.2,60.6,72,29.99,10.0,North,3.5,-,N/A,,Clear,360,2013-08-22 13:35:00
9:54 AM,71.4,60.4,68,30.00,10.0,NNW,4.6,-,N/A,,Clear,340,2013-08-22 13:54:00
10:15 AM,72.1,59.7,65,30.01,10.0,NNW,3.5,-,N/A,,Clear,340,2013-08-22 14:15:00
10:35 AM,71.6,59.0,64,30.02,10.0,Calm,Calm,-,N/A,,Scattered Clouds,0,2013-08-22 14:35:00
10:55 AM,72.0,58.8,63,30.03,10.0,NW,3.5,-,N/A,,Mostly Cloudy,320,2013-08-22 14:55:00
11:15 AM,71.2,59.0,65,30.03,10.0,Calm,Calm,-,N/A,,Mostly Cloudy,0,2013-08-22 15:15:00
11:35 AM,72.7,59.0,62,30.03,4.0,West,4.6,-,N/A,,Haze,270,2013-08-22 15:35:00
11:55 AM,71.2,61.3,71,30.02,10.0,Calm,Calm,-,N/A,,Mostly Cloudy,0,2013-08-22 15:55:00
12:15 PM,73.6,60.1,63,30.02,10.0,WNW,3.5,-,N/A,,Scattered Clouds,300,2013-08-22 16:15:00
12:34 PM,75.2,60.1,59,30.04,10.0,WNW,3.5,-,N/A,,Scattered Clouds,300,2013-08-22 16:34:00
12:55 PM,75.4,59.4,57,30.04,10.0,North,6.9,-,N/A,,Scattered Clouds,360,2013-08-22 16:55:00
1:15 PM,75.2,61.2,62,30.03,10.0,North,4.6,-,N/A,,Mostly Cloudy,360,2013-08-22 17:15:00
1:34 PM,75.4,60.8,60,30.04,10.0,North,4.6,-,N/A,,Scattered Clouds,360,2013-08-22 17:34:00
1:55 PM,75.7,60.8,60,30.04,10.0,NNW,5.8,-,N/A,,Clear,330,2013-08-22 17:55:00
2:15 PM,77.0,58.8,53,30.03,10.0,WSW,8.1,-,N/A,,Clear,250,2013-08-22 18:15:00
2:35 PM,77.2,59.0,53,30.03,10.0,NW,4.6,-,N/A,,Clear,310,2013-08-22 18:35:00
2:55 PM,78.3,57.7,49,30.03,10.0,NW,4.6,-,N/A,,Clear,310,2013-08-22 18:55:00
3:15 PM,77.9,55.9,47,30.03,10.0,West,6.9,-,N/A,,Clear,280,2013-08-22 19:15:00
3:35 PM,78.6,52.9,41,30.03,10.0,WNW,5.8,-,N/A,,Clear,290,2013-08-22 19:35:00
3:55 PM,78.8,53.1,41,30.03,10.0,WNW,6.9,-,N/A,,Scattered Clouds,300,2013-08-22 19:55:00
4:14 PM,78.1,53.6,43,30.03,10.0,NW,9.2,-,N/A,,Scattered Clouds,310,2013-08-22 20:14:00
4:35 PM,78.1,51.6,40,30.03,10.0,WNW,8.1,-,N/A,,Clear,300,2013-08-22 20:35:00
4:55 PM,78.4,51.3,39,30.02,10.0,NW,3.5,-,N/A,,Clear,310,2013-08-22 20:55:00
5:15 PM,78.1,48.4,35,30.03,10.0,NW,5.8,-,N/A,,Clear,310,2013-08-22 21:15:00
5:35 PM,77.7,47.8,35,30.03,10.0,NNW,8.1,-,N/A,,Clear,330,2013-08-22 21:35:00
5:55 PM,76.5,48.2,37,30.03,10.0,NW,5.8,16.1,N/A,,Clear,310,2013-08-22 21:55:00
6:15 PM,75.7,48.9,39,30.03,10.0,NW,5.8,-,N/A,,Clear,320,2013-08-22 22:15:00
6:35 PM,75.0,49.1,40,30.03,10.0,NNW,5.8,-,N/A,,Clear,330,2013-08-22 22:35:00
6:55 PM,74.3,47.8,39,30.03,10.0,NW,8.1,-,N/A,,Clear,320,2013-08-22 22:55:00
7:15 PM,73.4,48.0,41,30.04,10.0,NW,5.8,-,N/A,,Clear,320,2013-08-22 23:15:00
7:35 PM,72.3,48.4,43,30.04,10.0,NW,5.8,-,N/A,,Clear,320,2013-08-22 23:35:00
7:54 PM,71.1,49.1,46,30.05,10.0,NW,8.1,-,N/A,,Clear,320,2013-08-22 23:54:00
8:15 PM,69.3,51.1,52,30.05,10.0,NW,3.5,-,N/A,,Clear,310,2013-08-23 00:15:00
8:35 PM,68.2,52.2,56,30.06,10.0,NW,4.6,-,N/A,,Clear,310,2013-08-23 00:35:00
8:54 PM,67.3,52.2,58,30.06,10.0,NW,4.6,-,N/A,,Clear,310,2013-08-23 00:54:00
9:15 PM,66.6,52.3,60,30.07,10.0,NW,4.6,-,N/A,,Clear,310,2013-08-23 01:15:00
9:35 PM,65.7,52.3,62,30.08,10.0,NW,3.5,-,N/A,,Clear,310,2013-08-23 01:35:00
9:55 PM,65.3,52.2,62,30.08,10.0,WNW,3.5,-,N/A,,Clear,300,2013-08-23 01:55:00
10:15 PM,64.4,51.8,64,30.08,10.0,Calm,Calm,-,N/A,,Clear,0,2013-08-23 02:15:00
10:35 PM,63.7,52.7,67,30.09,10.0,Calm,Calm,-,N/A,,Clear,0,2013-08-23 02:35:00
10:55 PM,62.4,53.1,71,30.09,10.0,Calm,Calm,-,N/A,,Clear,0,2013-08-23 02:55:00
11:15 PM,61.3,53.4,75,30.09,10.0,Calm,Calm,-,N/A,,Clear,0,2013-08-23 03:15:00
11:34 PM,60.8,53.8,78,30.10,10.0,Calm,Calm,-,N/A,,Clear,0,2013-08-23 03:34:00
11:55 PM,60.8,54.5,80,30.10,10.0,NW,4.6,-,N/A,,Clear,320,2013-08-23 03:55:00